Carbondale, IL

7:40 PM CST on November 15, 2019 (GMT -0600)
Southern Illinois

Weather History for KMDH - August, 2019

Change the Weather History Date:

Monday, August 19, 2019

  Actual Average Record
Temperature  
Mean Temperature 80 °F -  
Max Temperature 93 °F 88 °F 106 °F (1936)
Min Temperature 68 °F 64 °F 51 °F (1976)
Cooling Degree Days 16    
Growing Degree Days 30 (Base 50)    
Moisture  
Dew Point 73 °F    
Average Humidity 80    
Maximum Humidity 96    
Minimum Humidity 54    
Precipitation  
Precipitation 0.00 in - - ()
Sea Level Pressure  
Sea Level Pressure 29.99 in    
Wind  
Wind Speed 4 mph (SSW)    
Max Wind Speed 12 mph    
Max Gust Speed -    
Visibility 10 miles    
Events      
Averages and records for this station are not official NWS values.
T = Trace of Precipitation, MM = Missing Value Source: NWS Daily Summary

Daily Weather History Graph

Daily Weather History Graph

Search for Another Location

Airport or City:

Astronomy

Aug. 19, 2019 Rise Set
Actual Time 6:15 AM CDT 7:44 PM CDT
Civil Twilight 5:48 AM CDT 8:12 PM CDT
Nautical Twilight 5:14 AM CDT 8:45 PM CDT
Astronomical Twilight 4:39 AM CDT 9:20 PM CDT
Moon 10:10 PM CDT (8/19) 9:53 AM CDT (8/19)
Length of Visible Light 14h 24m
Length of Day
13h 29m
Waning Gibbous, 85% of the Moon is Illuminated
Aug 19
Waning Gibbous
Aug 23
Last Quarter
Aug 30
New
Sep 5
First Quarter
Sep 13
Full

Hourly Weather History & Observations

Time (CDT) Temp. Heat Index Dew Point Humidity Pressure Visibility Wind Dir Wind Speed Gust Speed Precip Events Conditions
12:52 AM 73.0 °F - 69.1 °F 87% 29.94 in 10.0 mi SW 4.6 mph - N/A   Clear
1:52 AM 73.0 °F - 69.1 °F 87% 29.94 in 10.0 mi SW 5.8 mph - N/A   Clear
2:52 AM 71.1 °F - 68.0 °F 90% 29.95 in 10.0 mi South 3.5 mph - N/A   Clear
3:52 AM 69.1 °F - 68.0 °F 96% 29.95 in 10.0 mi ESE 3.5 mph - N/A   Clear
4:52 AM 68.0 °F - 66.9 °F 96% 29.97 in 9.0 mi Calm Calm - N/A   Clear
5:52 AM 68.0 °F - 66.9 °F 96% 29.98 in 7.0 mi Calm Calm - N/A   Clear
6:52 AM 69.1 °F - 68.0 °F 96% 30.00 in 9.0 mi Calm Calm - N/A   Clear
7:52 AM 73.9 °F - 71.1 °F 91% 30.01 in 10.0 mi Calm Calm - N/A   Clear
8:52 AM 79.0 °F - 73.0 °F 82% 30.02 in 10.0 mi South 4.6 mph - N/A   Clear
9:52 AM 82.9 °F 89.4 °F 73.9 °F 74% 30.03 in 10.0 mi SW 3.5 mph - N/A   Clear
10:52 AM 84.9 °F 92.1 °F 73.9 °F 69% 30.03 in 10.0 mi Calm Calm - N/A   Clear
11:52 AM 88.0 °F 98.5 °F 75.9 °F 67% 30.02 in 10.0 mi Variable 3.5 mph - N/A   Clear
12:52 PM 90.0 °F 101.3 °F 75.9 °F 63% 30.01 in 10.0 mi Calm Calm - N/A   Partly Cloudy
1:52 PM 91.9 °F 103.9 °F 75.9 °F 59% 30.00 in 10.0 mi South 5.8 mph - N/A   Partly Cloudy
2:52 PM 93.0 °F 105.3 °F 75.9 °F 57% 29.98 in 10.0 mi South 9.2 mph - N/A   Partly Cloudy
3:52 PM 93.0 °F 104.6 °F 75.0 °F 56% 29.97 in 10.0 mi SSW 8.1 mph - N/A   Partly Cloudy
4:52 PM 93.0 °F 103.2 °F 73.9 °F 54% 29.96 in 10.0 mi SW 11.5 mph - N/A   Clear
5:52 PM 86.0 °F 96.0 °F 75.9 °F 72% 29.96 in 10.0 mi SW 4.6 mph - N/A   Clear
6:52 PM 86.0 °F 96.9 °F 77.0 °F 74% 29.96 in 10.0 mi South 5.8 mph - N/A   Clear
7:52 PM 82.9 °F 91.8 °F 77.0 °F 82% 29.99 in 10.0 mi SW 4.6 mph - N/A   Clear
8:52 PM 80.1 °F 85.8 °F 77.0 °F 90% 29.99 in 10.0 mi SE 4.6 mph - N/A   Clear
9:52 PM 79.0 °F - 77.0 °F 94% 30.01 in 9.0 mi Calm Calm - N/A   Clear
10:52 PM 78.1 °F - 75.9 °F 93% 30.01 in 9.0 mi Calm Calm - N/A   Clear
11:52 PM 75.9 °F - 73.9 °F 94% 30.01 in 6.0 mi South 3.5 mph - N/A   Clear